TimeMDT,TemperatureF,Dew PointF,Humidity,Sea Level PressureIn,VisibilityMPH,Wind Direction,Wind SpeedMPH,Gust SpeedMPH,PrecipitationIn,Events,Conditions,WindDirDegrees,DateUTC
12:53 AM,39.9,35.1,83,30.14,10.0,SSE,11.5,-,N/A,,Clear,160,2013-10-25 06:53:00
1:53 AM,37.9,35.1,89,30.14,10.0,SSE,8.1,-,N/A,,Clear,150,2013-10-25 07:53:00
2:53 AM,39.9,36.0,86,30.13,10.0,South,11.5,-,N/A,,Clear,170,2013-10-25 08:53:00
3:53 AM,37.9,35.1,89,30.11,10.0,SSE,9.2,-,N/A,,Clear,160,2013-10-25 09:53:00
4:53 AM,39.9,35.1,83,30.09,10.0,South,4.6,-,N/A,,Clear,180,2013-10-25 10:53:00
5:53 AM,39.9,35.1,83,30.10,10.0,East,3.5,-,N/A,,Clear,80,2013-10-25 11:53:00
6:53 AM,39.0,34.0,82,30.13,10.0,Calm,Calm,-,N/A,,Clear,0,2013-10-25 12:53:00
7:53 AM,34.0,30.9,89,30.16,10.0,Calm,Calm,-,N/A,,Clear,0,2013-10-25 13:53:00
8:53 AM,41.0,36.0,82,30.14,10.0,Calm,Calm,-,N/A,,Clear,0,2013-10-25 14:53:00
9:53 AM,53.1,37.9,57,30.12,10.0,West,11.5,-,N/A,,Clear,260,2013-10-25 15:53:00
10:53 AM,57.9,37.9,47,30.09,10.0,West,11.5,-,N/A,,Clear,260,2013-10-25 16:53:00
11:53 AM,62.1,36.0,38,30.08,10.0,WNW,9.2,-,N/A,,Clear,290,2013-10-25 17:53:00
12:53 PM,64.0,32.0,30,30.07,10.0,NW,19.6,25.3,N/A,,Clear,320,2013-10-25 18:53:00
1:53 PM,64.0,33.1,31,30.07,10.0,NNW,15.0,-,N/A,,Clear,330,2013-10-25 19:53:00
2:53 PM,64.0,34.0,33,30.07,10.0,NW,16.1,-,N/A,,Clear,320,2013-10-25 20:53:00
3:53 PM,64.0,34.0,33,30.09,10.0,North,17.3,-,N/A,,Clear,350,2013-10-25 21:53:00
4:53 PM,61.0,36.0,39,30.10,10.0,NNW,17.3,-,N/A,,Clear,330,2013-10-25 22:53:00
5:53 PM,52.0,36.0,54,30.16,10.0,NW,5.8,-,N/A,,Clear,320,2013-10-25 23:53:00
6:53 PM,50.0,35.1,57,30.19,10.0,NW,8.1,-,N/A,,Clear,320,2013-10-26 00:53:00
7:53 PM,46.9,35.1,63,30.24,10.0,Variable,3.5,-,N/A,,Clear,0,2013-10-26 01:53:00
8:53 PM,39.9,33.1,77,30.26,10.0,Calm,Calm,-,N/A,,Clear,0,2013-10-26 02:53:00
9:53 PM,43.0,34.0,71,30.24,10.0,North,5.8,-,N/A,,Clear,350,2013-10-26 03:53:00
10:53 PM,41.0,34.0,76,30.24,10.0,Calm,Calm,-,N/A,,Clear,0,2013-10-26 04:53:00
11:53 PM,30.9,28.9,92,30.27,10.0,Calm,Calm,-,N/A,,Clear,0,2013-10-26 05:53:00